sat.trackr.live / text

‹ back to catalog

STARLINK-11148 [DTC]

NORAD 60044 · 2024-112G

PAYLOAD ACTIVE UNKNOWN

§ Identity

Operator
Country
US
Launch date
2024-06-08
Launch site
AFWTR
Launch vehicle
Mass (kg)
RCS (m²)

Purposes: comms

External: N2YO · Heavens-Above · Gunter

§ Orbital elements

Epoch: 2026-05-24T14:23:07.581120Z

Period
91.74 min
Inclination
53.1596°
Eccentricity
0.0000982
Mean motion
15.69708828 rev/d
Perigee alt
359.1 km
Apogee alt
360.4 km
Semi-major
6,737.9 km
B*
2.1141e-5
RAAN
252.0477°
Arg perigee
78.5879°
Mean anomaly
281.5249°
Rev number
11,290

§ Raw data

STARLINK-11148 [DTC]1 60044U 24112G   26144.59939330  .00001973  00000+0  21141-4 0  99942 60044  53.1596 252.0477 0000982  78.5879 281.5249 15.69708828112903

JSON: /api/v1/satellites/60044 · /tle

For live sub-satellite position, see the globe view (requires WebGL).

§ Visibility from observer

Set your observer location to see the next 7 days of passes ≥ 10°. The values pass through the URL so the page stays shareable.

No JS? Fill the form by hand. The geolocation button needs JavaScript.